VKG1359 LPFR-EFKU

Flight info

Callsign VKG1359
Flight time N/A
Altitude 32000
Route EVURA DCT BARDI N873 DELOG DCT YURZI UL14 TEPRA UN867 NORMI/N0452F340 UN867 RINSO UM184 PILIP UN6 TELTU/N0452F330 UM185 DIGSU N866 BANEM M604 GIVPO DCT TOPPA DCT OMIMA/N0451F350 DCT GIKIV N873 GOTEX DCT DETSO N873 TORVA DCT KELAS DCT KOFUT DCT NISPO
Aircraft A321/M-SDE3FGHIRWY/LB1

Departure

Time N/A
Airport Faro - Gago Coutinho International Airport (LPFR)

Arrival

Time 2026-04-26 20:17
Airport Kuopio Airport (EFKU)
Time Latitude Longitude Altitude Speed Heading
2026-04-26 19:24 59.99111 17.78902 34111 ft 449 kts 45°
2026-04-26 19:25 60.02142 17.87446 34106 ft 450 kts 45°
2026-04-26 19:25 60.06328 17.99310 34381 ft 449 kts 46°
2026-04-26 19:26 60.08120 18.04425 34607 ft 448 kts 46°
2026-04-26 19:26 60.09908 18.09537 34892 ft 448 kts 46°
2026-04-26 19:26 60.11697 18.14661 35054 ft 449 kts 46°
2026-04-26 19:26 60.13492 18.19799 35109 ft 451 kts 46°
2026-04-26 19:27 60.17066 18.30079 35136 ft 447 kts 46°
2026-04-26 19:27 60.20621 18.40363 35103 ft 447 kts 46°
2026-04-26 19:28 60.24166 18.50640 35100 ft 447 kts 46°
2026-04-26 19:28 60.27715 18.60943 35098 ft 447 kts 46°
2026-04-26 19:29 60.31247 18.71277 35097 ft 448 kts 47°
2026-04-26 19:29 60.34766 18.81658 35098 ft 448 kts 47°
2026-04-26 19:30 60.38262 18.91981 35087 ft 448 kts 47°
2026-04-26 19:30 60.41208 19.00693 35088 ft 448 kts 47°
2026-04-26 19:31 60.45280 19.12836 35090 ft 449 kts 47°
2026-04-26 19:31 60.48765 19.23341 35090 ft 449 kts 47°
2026-04-26 19:32 60.52220 19.33935 35129 ft 450 kts 48°
2026-04-26 19:32 60.55658 19.44580 35076 ft 450 kts 49°
2026-04-26 19:33 60.59090 19.55243 35071 ft 451 kts 49°
2026-04-26 19:33 60.62519 19.65936 35059 ft 451 kts 49°
2026-04-26 19:34 60.65944 19.76663 35060 ft 451 kts 49°
2026-04-26 19:34 60.69341 19.87338 35055 ft 451 kts 49°
2026-04-26 19:35 60.72754 19.98106 35056 ft 452 kts 49°
2026-04-26 19:35 60.76159 20.08916 35085 ft 452 kts 49°
2026-04-26 19:36 60.78982 20.17921 35068 ft 453 kts 49°
2026-04-26 19:36 60.82942 20.30621 35060 ft 453 kts 49°
2026-04-26 19:37 60.86334 20.41516 35052 ft 453 kts 49°
2026-04-26 19:37 60.89717 20.52447 35045 ft 453 kts 49°
2026-04-26 19:38 60.93093 20.63403 35041 ft 453 kts 50°
2026-04-26 19:38 60.96459 20.74384 35057 ft 454 kts 50°
2026-04-26 19:39 60.99799 20.85352 35046 ft 454 kts 50°
2026-04-26 19:39 61.03153 20.96415 35038 ft 455 kts 50°
2026-04-26 19:40 61.06504 21.07513 35035 ft 455 kts 50°
2026-04-26 19:40 61.09822 21.18569 35034 ft 455 kts 50°
2026-04-26 19:41 61.13157 21.29703 35046 ft 455 kts 51°
2026-04-26 19:41 61.15923 21.39006 35016 ft 456 kts 51°
2026-04-26 19:42 61.19791 21.52088 35007 ft 455 kts 51°
2026-04-26 19:42 61.23103 21.63305 35003 ft 456 kts 51°
2026-04-26 19:43 61.26409 21.74572 34999 ft 457 kts 51°
2026-04-26 19:43 61.29704 21.85879 35002 ft 457 kts 51°
2026-04-26 19:44 61.32977 21.97132 35005 ft 457 kts 52°
2026-04-26 19:44 61.36257 22.08481 35028 ft 458 kts 52°
2026-04-26 19:45 61.39548 22.19919 34975 ft 461 kts 52°
2026-04-26 19:45 61.42849 22.31476 34989 ft 465 kts 53°
2026-04-26 19:46 61.46162 22.43134 34976 ft 467 kts 53°
2026-04-26 19:46 61.49478 22.54847 34967 ft 469 kts 53°
2026-04-26 19:47 61.52239 22.64626 34972 ft 470 kts 53°
2026-04-26 19:47 61.56116 22.78454 35001 ft 471 kts 54°
2026-04-26 19:48 61.59421 22.90322 34980 ft 471 kts 54°
2026-04-26 19:48 61.62719 23.02224 34972 ft 471 kts 54°
2026-04-26 19:49 61.66014 23.14164 34972 ft 471 kts 54°
2026-04-26 19:49 61.69272 23.26053 34972 ft 472 kts 54°
2026-04-26 19:50 61.72542 23.38045 34990 ft 471 kts 54°
2026-04-26 19:50 61.75915 23.49922 34994 ft 471 kts 54°
2026-04-26 19:51 61.79339 23.61760 34985 ft 472 kts 54°
2026-04-26 19:51 61.82737 23.73650 34980 ft 473 kts 54°
2026-04-26 19:52 61.86102 23.85614 34966 ft 473 kts 54°
2026-04-26 19:52 61.89456 23.97624 34963 ft 473 kts 54°
2026-04-26 19:53 61.92813 24.09660 34964 ft 473 kts 54°
2026-04-26 19:53 61.96139 24.21653 34976 ft 474 kts 55°
2026-04-26 19:54 61.99482 24.33773 34958 ft 474 kts 55°
2026-04-26 19:54 62.02810 24.45902 34956 ft 474 kts 55°
2026-04-26 19:55 62.06128 24.58072 34959 ft 475 kts 56°
2026-04-26 19:55 62.09416 24.70190 34952 ft 475 kts 56°
2026-04-26 19:56 62.12720 24.82449 34947 ft 475 kts 56°
2026-04-26 19:56 62.16011 24.94716 34937 ft 476 kts 56°
2026-04-26 19:57 62.19299 25.07029 34936 ft 476 kts 56°
2026-04-26 19:57 62.20925 25.13159 34786 ft 467 kts 57°
2026-04-26 19:57 62.22508 25.19156 33500 ft 461 kts 56°
2026-04-26 19:58 62.24094 25.25156 32117 ft 457 kts 56°
2026-04-26 19:58 62.25620 25.30950 31460 ft 437 kts 56°
2026-04-26 19:58 62.27092 25.36567 30587 ft 424 kts 56°
2026-04-26 19:58 62.28509 25.41981 29677 ft 422 kts 56°
2026-04-26 19:59 62.29955 25.47489 28664 ft 425 kts 56°
2026-04-26 19:59 62.31410 25.53031 27709 ft 427 kts 56°
2026-04-26 19:59 62.32883 25.58655 26723 ft 435 kts 57°
2026-04-26 19:59 62.34376 25.64365 25629 ft 441 kts 58°
2026-04-26 20:00 62.35888 25.70168 24511 ft 447 kts 58°
2026-04-26 20:00 62.37409 25.76051 23492 ft 451 kts 59°
2026-04-26 20:00 62.38927 25.81969 22546 ft 449 kts 59°
2026-04-26 20:00 62.40424 25.87829 21777 ft 442 kts 59°
2026-04-26 20:01 62.41897 25.93608 21044 ft 436 kts 59°
2026-04-26 20:01 62.43351 25.99305 20308 ft 430 kts 59°
2026-04-26 20:01 62.44787 26.04932 19590 ft 425 kts 59°
2026-04-26 20:01 62.46203 26.10489 18877 ft 420 kts 59°
2026-04-26 20:02 62.47601 26.15993 18185 ft 416 kts 59°
2026-04-26 20:02 62.48983 26.21448 17468 ft 410 kts 60°
2026-04-26 20:02 62.49884 26.25018 17044 ft 405 kts 59°
2026-04-26 20:02 62.50771 26.28543 16611 ft 401 kts 60°
2026-04-26 20:03 62.52532 26.35551 15804 ft 392 kts 60°
2026-04-26 20:03 62.53819 26.40695 15229 ft 386 kts 60°
2026-04-26 20:03 62.55086 26.45768 14643 ft 379 kts 60°
2026-04-26 20:03 62.56331 26.50761 14096 ft 373 kts 60°
2026-04-26 20:04 62.57556 26.55682 13548 ft 369 kts 60°
2026-04-26 20:04 62.58771 26.60559 12998 ft 364 kts 60°
2026-04-26 20:04 62.59970 26.65376 12470 ft 360 kts 60°
2026-04-26 20:04 62.61139 26.70080 11969 ft 356 kts 60°
2026-04-26 20:05 62.62307 26.74796 11455 ft 352 kts 60°
2026-04-26 20:05 62.63450 26.79425 11150 ft 341 kts 60°
2026-04-26 20:05 62.64541 26.83875 11038 ft 326 kts 60°
2026-04-26 20:05 62.65580 26.88136 10905 ft 311 kts 60°
2026-04-26 20:06 62.66571 26.92208 10774 ft 298 kts 60°
2026-04-26 20:06 62.67522 26.96110 10642 ft 286 kts 60°
2026-04-26 20:06 62.68434 26.99864 10505 ft 275 kts 59°
2026-04-26 20:06 62.69319 27.03494 10215 ft 269 kts 59°
2026-04-26 20:07 62.70191 27.07062 9962 ft 265 kts 59°
2026-04-26 20:07 62.71052 27.10595 9848 ft 263 kts 59°
2026-04-26 20:07 62.71778 27.14280 9813 ft 266 kts 69°
2026-04-26 20:07 62.72337 27.18111 9679 ft 265 kts 69°
2026-04-26 20:08 62.72894 27.21946 9539 ft 265 kts 69°
2026-04-26 20:08 62.73446 27.25764 9394 ft 264 kts 69°
2026-04-26 20:08 62.73998 27.29580 9156 ft 263 kts 69°
2026-04-26 20:08 62.74547 27.33367 8766 ft 261 kts 69°
2026-04-26 20:09 62.75120 27.37109 8361 ft 259 kts 68°
2026-04-26 20:09 62.75701 27.40776 7915 ft 259 kts 68°
2026-04-26 20:09 62.76294 27.44482 7535 ft 257 kts 68°
2026-04-26 20:09 62.76880 27.48165 7108 ft 256 kts 68°
2026-04-26 20:10 62.77455 27.51804 6705 ft 254 kts 68°
2026-04-26 20:10 62.78027 27.55425 6218 ft 247 kts 68°
2026-04-26 20:10 62.78580 27.58949 5684 ft 244 kts 68°
2026-04-26 20:10 62.79127 27.62442 5240 ft 242 kts 68°
2026-04-26 20:11 62.79671 27.65921 4945 ft 242 kts 68°
2026-04-26 20:11 62.80206 27.69358 4552 ft 242 kts 68°
2026-04-26 20:11 62.80745 27.72833 4134 ft 243 kts 67°
2026-04-26 20:12 62.81768 27.79463 3969 ft 217 kts 67°
2026-04-26 20:12 62.82235 27.82503 3892 ft 207 kts 66°
2026-04-26 20:12 62.82695 27.85483 3811 ft 206 kts 66°
2026-04-26 20:12 62.83314 27.88273 3592 ft 200 kts 50°
2026-04-26 20:13 62.84250 27.90312 3460 ft 182 kts 33°
2026-04-26 20:13 62.85356 27.91538 3338 ft 177 kts 19°
2026-04-26 20:13 62.86569 27.91985 3147 ft 178 kts
2026-04-26 20:13 62.87795 27.91620 2943 ft 180 kts 348°
2026-04-26 20:14 62.88963 27.90600 2709 ft 175 kts 342°
2026-04-26 20:14 62.90027 27.89616 2501 ft 155 kts 343°
2026-04-26 20:14 62.90978 27.88741 2270 ft 143 kts 343°
2026-04-26 20:14 62.91688 27.88095 2112 ft 139 kts 343°
2026-04-26 20:15 62.92568 27.87233 1974 ft 138 kts 341°
2026-04-26 20:15 62.93447 27.86421 1799 ft 136 kts 345°
2026-04-26 20:15 62.94326 27.85624 1595 ft 137 kts 342°
2026-04-26 20:15 62.95197 27.84806 1384 ft 136 kts 344°
2026-04-26 20:16 62.96086 27.84046 1116 ft 139 kts 341°
2026-04-26 20:16 62.96964 27.83235 885 ft 139 kts 339°
2026-04-26 20:16 62.97849 27.82436 678 ft 136 kts 338°
2026-04-26 20:16 62.98715 27.81626 538 ft 135 kts 339°
2026-04-26 20:17 62.99582 27.80822 373 ft 134 kts 339°
2026-04-26 20:17 63.00399 27.80070 325 ft 110 kts 338°
2026-04-26 20:17 63.00834 27.79665 324 ft 34 kts 337°
2026-04-26 20:17 63.00974 27.79537 325 ft 32 kts 338°
2026-04-26 20:18 63.01102 27.79232 323 ft 21 kts 257°
2026-04-26 20:18 63.01069 27.79049 324 ft 0 kts 243°
2026-04-26 20:18 63.01069 27.79030 324 ft 7 kts 267°
2026-04-26 20:19 63.01052 27.78947 324 ft 4 kts 224°
2026-04-26 20:19 63.01034 27.78922 324 ft 1 kts 197°
2026-04-26 20:19 63.01028 27.78928 324 ft 0 kts 158°
2026-04-26 20:19 63.01021 27.78945 322 ft 0 kts 139°
2026-04-26 20:20 63.01018 27.78952 323 ft 1 kts 130°
2026-04-26 20:20 63.01018 27.78953 323 ft 0 kts 129°